TimeAST,TemperatureF,Dew PointF,Humidity,Sea Level PressureIn,VisibilityMPH,Wind Direction,Wind SpeedMPH,Gust SpeedMPH,PrecipitationIn,Events,Conditions,WindDirDegrees,DateUTC
12:00 AM,80.6,73.4,79,30.06,6.2,East,12.7,-,N/A,,Scattered Clouds,90,2013-05-26 04:00:00
1:00 AM,80.6,73.4,79,30.04,6.2,East,13.8,-,N/A,,Scattered Clouds,90,2013-05-26 05:00:00
2:00 AM,80,73,74,30.03,11,East,11.5,,,,Mostly Cloudy,100,2013-05-26 06:00:00
2:00 AM,80.6,73.4,79,30.01,6.2,East,11.5,-,N/A,,Scattered Clouds,100,2013-05-26 06:00:00
3:00 AM,80.6,73.4,79,30.01,6.2,East,8.1,-,N/A,,Partly Cloudy,90,2013-05-26 07:00:00
4:00 AM,78.8,73.4,83,30.01,6.2,East,10.4,-,N/A,,Scattered Clouds,100,2013-05-26 08:00:00
5:00 AM,80,73,73,30.02,16,ESE,9.2,,,,Scattered Clouds,120,2013-05-26 09:00:00
5:00 AM,80.6,73.4,79,30.01,6.2,East,9.2,-,N/A,,Partly Cloudy,100,2013-05-26 09:00:00
6:00 AM,80.6,73.4,79,30.01,6.2,East,9.2,-,N/A,,Scattered Clouds,100,2013-05-26 10:00:00
7:00 AM,80.6,73.4,79,30.04,6.2,East,11.5,-,N/A,,Scattered Clouds,100,2013-05-26 11:00:00
8:00 AM,82,73,67,30.06,19,ESE,5.8,,,,Partly Cloudy,110,2013-05-26 12:00:00
8:00 AM,82.4,73.4,74,30.04,6.2,ESE,5.8,-,N/A,,Scattered Clouds,110,2013-05-26 12:00:00
9:00 AM,82.4,73.4,74,30.06,6.2,ENE,10.4,-,N/A,,Mostly Cloudy,70,2013-05-26 13:00:00
10:00 AM,84.2,73.4,70,30.06,6.2,East,13.8,-,N/A,,Mostly Cloudy,90,2013-05-26 14:00:00
11:00 AM,84,73,62,30.08,12,ENE,10.4,,,,Partly Cloudy,70,2013-05-26 15:00:00
11:00 AM,84.2,73.4,70,30.06,6.2,ENE,10.4,-,N/A,,Mostly Cloudy,70,2013-05-26 15:00:00
12:00 PM,86.0,73.4,66,30.06,6.2,East,10.4,-,N/A,,Mostly Cloudy,80,2013-05-26 16:00:00
1:00 PM,84.2,71.6,66,30.06,6.2,East,15.0,-,N/A,,Mostly Cloudy,80,2013-05-26 17:00:00
2:00 PM,86,72,56,30.04,19,East,10.4,,,,Partly Cloudy,90,2013-05-26 18:00:00
2:00 PM,86.0,73.4,66,30.04,6.2,East,10.4,-,N/A,,Scattered Clouds,90,2013-05-26 18:00:00
3:00 PM,86.0,71.6,62,30.01,6.2,East,9.2,-,N/A,,Scattered Clouds,90,2013-05-26 19:00:00
4:00 PM,84.2,71.6,66,30.01,6.2,East,9.2,-,N/A,,Scattered Clouds,80,2013-05-26 20:00:00
5:00 PM,84,73,63,30.03,19,East,12.7,,,,Partly Cloudy,90,2013-05-26 21:00:00
5:00 PM,84.2,73.4,70,30.01,6.2,East,12.7,-,N/A,,Scattered Clouds,90,2013-05-26 21:00:00
6:00 PM,82.4,73.4,74,30.01,6.2,East,11.5,-,N/A,,Mostly Cloudy,90,2013-05-26 22:00:00
7:00 PM,80.6,73.4,79,30.04,6.2,East,13.8,-,N/A,,Mostly Cloudy,90,2013-05-26 23:00:00
8:00 PM,77,72,82,30.07,9,SSE,10.4,,,,,150,2013-05-27 00:00:00
8:00 PM,77.0,73.4,89,30.06,6.2,SSE,10.4,-,N/A,Rain,Light Rain Showers,150,2013-05-27 00:00:00
9:00 PM,78.8,71.6,78,30.06,6.2,ESE,11.5,-,N/A,,Scattered Clouds,120,2013-05-27 01:00:00
10:00 PM,78.8,71.6,78,30.06,6.2,ESE,10.4,-,N/A,,Scattered Clouds,110,2013-05-27 02:00:00
11:00 PM,79,73,76,30.10,16,ESE,17.3,,,,Partly Cloudy,110,2013-05-27 03:00:00
11:00 PM,78.8,73.4,83,30.09,6.2,ESE,17.3,-,N/A,,Mostly Cloudy,110,2013-05-27 03:00:00